Overview Statistics Trail Chart Weather Telemetry Raw packets
 

This is the latest recevied weather packets stored in our database for station/object K0NV. If no packets are shown the sender has not sent any weather packets the latest 10 day(s).

<< 5 6 7 8 9 10 11 >>
Time Temp. Humidity Pressure Rain* Wind** Luminosity Snow
1788529372 28.89° C 72% 1018.4 hPa 0 mm - 208 W/m² -
1788529067 28.89° C 74% 1018.4 hPa 0 mm - 181 W/m² -
1788528763 28.33° C 74% 1018.5 hPa 0 mm - 179 W/m² -
1788528462 28.89° C 73% 1018.4 hPa 0 mm - 166 W/m² -
1788528158 28.33° C 75% 1018.5 hPa 0 mm - 150 W/m² -
1788527856 27.78° C 77% 1018.3 hPa 0 mm - 137 W/m² -
1788527552 27.78° C 75% 1018.2 hPa 0 mm - 133 W/m² -
1788527247 27.78° C 77% 1018.3 hPa 0 mm - 109 W/m² -
1788526946 26.11° C 80% 1018.4 hPa 0 mm - 91 W/m² -
1788526642 25.56° C 82% 1018 hPa 0 mm - 81 W/m² -
1788526362 25.56° C 82% 1018.1 hPa 0 mm - 68 W/m² -
1788526032 25.56° C 83% 1017.9 hPa 0 mm - 48 W/m² -
1788525728 25° C 83% 1017.9 hPa 0 mm - 42 W/m² -
1788525423 25° C 84% 1018 hPa 0 mm - 37 W/m² -
1788525118 24.44° C 85% 1018.1 hPa 0 mm - 34 W/m² -
1788524813 23.89° C 87% 1017.9 hPa 0 mm - 30 W/m² -
1788524508 23.89° C 88% 1017.7 hPa 0 mm - 26 W/m² -
1788524203 23.33° C 90% 1017.9 hPa 0 mm - 21 W/m² -
1788523899 22.78° C 90% 1018 hPa 0 mm - 15 W/m² -
1788523607 22.78° C 90% 1017.5 hPa 0 mm - 12 W/m² -
1788523291 22.78° C 90% 1017.6 hPa 0 mm - 8 W/m² -
1788522991 22.78° C 91% 1017.8 hPa 0 mm - 5 W/m² -
1788522686 22.78° C 90% 1017.8 hPa 0 mm - 3 W/m² -
1788522380 22.78° C 91% 1017.7 hPa 0 mm - 2 W/m² -
1788522074 22.78° C 90% 1017.8 hPa 0 mm - 0 W/m² -

* Rain latest hour (hover to see other rain measurements)
** Current wind speed in m/s (hover to see current wind gust speed)